Regional Weather Roundup
Issued by NWS

Home | Current Version | Previous Version | Text Only | Print | Product List | Glossary On
Versions: 1 2 3 4 5 6 7 8 9 10 11 12 13 14 15 16 17 18 19 20 21 22 23 24 25 26 27 28 29 30 31 32 33 34 35 36 37 38 39 40 41 42 43 44 45 46 47 48 49 50
000
ASUS43 KDMX 041508
RWRIA

WEATHER ROUNDUP FOR IOWA
NATIONAL WEATHER SERVICE DES MOINES IA
1000 AM CDT WED MAY 04 2016

NOTE: "FAIR" INDICATES FEW OR NO CLOUDS BELOW 12,000 FEET WITH NO
SIGNIFICANT WEATHER AND/OR OBSTRUCTIONS TO VISIBILITY.

* - THESE STATIONS ARE NOT NWS STATIONS...THUS NOT UNDER NWS
QUALITY CONTROL.  THEY ALSO DO NOT REPORT WEATHER SUCH
AS PRECIPITATION OR FOG.

IAZ001>003-012>014-020>022-031>034-043>046-041600-
   NORTHWEST IOWA

CITY           SKY/WX    TMP DP  RH WIND       PRES   REMARKS
CARROLL *      SUNNY     54  39  58 N15G21    30.02R
CHEROKEE *     SUNNY     55  37  50 N8        30.05R
DENISON *      SUNNY     55  39  54 NE13      30.02R
LE MARS *      SUNNY     55  37  50 N9        30.08R
ORANGE CITY *  SUNNY     55  36  47 NE7       30.07R
SHELDON *      SUNNY     55  34  44 N12       30.05S
SIOUX CITY     SUNNY     58  38  47 N10       30.07R
SPENCER        SUNNY     54  35  48 N10       30.05R
STORM LAKE *   SUNNY     54  37  54 N13G18    30.05R
$$

IAZ055>058-069>071-079>083-090>094-041600-
   SOUTHWEST IOWA

CITY           SKY/WX    TMP DP  RH WIND       PRES   REMARKS
ATLANTIC *     SUNNY     57  39  51 N14       30.01S
AUDUBON *      SUNNY     55  39  54 N14       30.02S
CLARINDA *       N/A    N/A N/A N/A MISG        N/A
COUNCIL BLFS * SUNNY     57  39  51 N13G18    30.04R
CRESTON *      SUNNY     57  41  54 N14       29.99S
HARLAN  *      SUNNY     57  39  51 NE13      30.06R
LAMONI         SUNNY     57  41  55 N14G21    29.96R
RED OAK *      SUNNY     57  41  54 N15       30.02R
SHENANDOAH *   SUNNY     59  41  51 N12       30.03R
$$

IAZ047>049-059>061-072>074-084-041600-
   CENTRAL IOWA

CITY           SKY/WX    TMP DP  RH WIND       PRES   REMARKS
AMES           SUNNY     56  37  49 N15       29.97R
ANKENY *       SUNNY     57  39  51 NE17      29.97R
BOONE *        SUNNY     55  36  47 N17G25    29.98R
CHARITON *     SUNNY     57  43  58 N13G22    29.95R
DES MOINES     MOSUNNY   58  38  47 N17       29.97R
GRINNELL*      SUNNY     55  37  50 N16G23    29.94R
KNOXVILLE *    SUNNY     57  37  47 N15G23    29.94R
MARSHALLTOWN   SUNNY     54  37  52 N20G25    29.95R
NEWTON *       SUNNY     55  39  54 N20G26    29.95R
PERRY *          N/A     57  37  47 N18       30.00R
$$

IAZ004>006-015-016-023>025-035-036-041600-
   NORTH CENTRAL IOWA

CITY           SKY/WX    TMP DP  RH WIND       PRES   REMARKS
ALGONA *       SUNNY     54  36  50 N12G18    30.02R
CLARION *      SUNNY     55  36  47 NE15      29.99S
ESTHERVILLE    SUNNY     53  37  54 N13       30.03R
FORT DODGE *   SUNNY     55  36  47 N10G17    30.01S
MASON CITY     SUNNY     55  34  45 N17G25    29.99R
FOREST CITY *  SUNNY     54  32  43 N13       29.99S
WEBSTER CITY * SUNNY     55  34  44 N15G21    29.98R
IOWA FALLS *     N/A     55  36  47 N16       29.98R
$$

IAZ007>011-017>019-026>030-037>042-050>054-066-041600-
   NORTHEAST IOWA

CITY           SKY/WX    TMP DP  RH WIND       PRES   REMARKS
CEDAR RAPIDS   SUNNY     54  40  59 N20       29.90R
CHARLES CITY * SUNNY     54  34  47 N17G25    29.96S
CLINTON *      SUNNY     53  42  66 N22       29.85R
DECORAH *      SUNNY     52  36  54 N14G21    29.91S
DUBUQUE        MOSUNNY   51  40  65 N21G28    29.86S
MONTICELLO *   SUNNY     54  39  58 N15       29.89R
OELWEIN *      SUNNY     54  36  50 N18G25    29.93S
WATERLOO       SUNNY     55  36  48 N17G24    29.94R
$$

IAZ064-065-067-068-078-041600-
   EAST CENTRAL IOWA

CITY           SKY/WX    TMP DP  RH WIND       PRES   REMARKS
DAVENPORT      SUNNY     54  43  66 N21       29.85R
IOWA CITY      MOSUNNY   56  41  57 N14G22    29.90R
MT. PLEASANT * PTSUNNY   57  48  72 N16       29.88R
MUSCATINE *    MOSUNNY   57  45  62 N16G23    29.87S
QUAD CITIES    MOSUNNY   56  42  59 N16       29.84R
$$

IAZ062-063-075>077-085>089-095>099-041600-
   SOUTHEAST IOWA

CITY           SKY/WX    TMP DP  RH WIND       PRES   REMARKS
BURLINGTON     MOSUNNY   56  46  69 N20G26    29.86R
FAIRFIELD *    MOSUNNY   55  45  67 N20       29.89S
FORT MADISON * PTSUNNY   55  48  76 N15       29.87R
KEOKUK *       MOSUNNY   59  46  63 N17       29.86R
OSKALOOSA *      N/A     55  41  58 N20       29.92R
OTTUMWA        SUNNY     56  42  59 N16G28    29.91R
WASHINGTON *   MOSUNNY   54  46  76 N18       29.90S
$$

ABBREVIATIONS USED IN REMARKS
   TC - TEMPERATURES IN CELSIUS
  WCI - WIND CHILL INDEX
   HX - HEAT INDEX
  VSB - VISIBILITY
$$




USA.gov is the U.S. government's official web portal to all federal, state and local government web resources and services.